User: anonymous   Login
Location: *
(34.8620°S, 39.3380°E)
Time: 03:23:54
(UTC+00:00)
Language:

YAOGAN 1 - Orbit

View from above orbital plane
View from above orbital plane
View from above satellite
View from above satellite

Ground track
Ground track

The orbit data is extracted from the following two-line orbital elements,

1 29092U 06015A   21293.66020876  .00000176  00000-0  27991-4 0  9992
2 29092  97.8996 319.6998 0001442  89.8783 270.2596 14.83207927837496
Epoch (UTC): 20 October 2021 15:50:42
Eccentricity: 0.0001442
inclination: 97.8996°
perigee height: 618 km
apogee height: 620 km
right ascension of ascending node: 319.6998°
argument of perigee: 89.8783°
revolutions per day: 14.83207927
mean anomaly at epoch: 270.2596°
orbit number at epoch: 83749

The dashed part of the orbit path shows where the satellite is in the earth's shadow,  

DLR